WB7OXJ Weather Reports


Display with metric or nautical units.
time (UTC)temp
F
wind
direction
speed
MPH
gust
MPH
rain 1hr
in
rain 24hr
in
rain mn
in
humidity
%
barometer
mb
20260503233042 82 25 0.0 4.0 0.00 0.00 0.00 38 1008.6
20260503231538 81 138 1.0 4.0 0.00 0.00 0.00 39 1008.7
20260503230036 81 17 0.0 2.0 0.00 0.00 0.00 39 1009.0
20260503224534 81 16 2.0 4.0 0.00 0.00 0.00 37 1009.2
20260503223033 81 109 0.0 4.0 0.00 0.00 0.00 40 1009.4
20260503221530 81 150 0.0 7.0 0.00 0.00 0.00 38 1009.7
20260503220027 80 10 1.0 4.0 0.00 0.00 0.00 44 1009.9
20260503214525 80 318 0.0 2.0 0.00 0.00 0.00 41 1010.1
20260503213023 80 318 0.0 3.0 0.00 0.00 0.00 47 1010.3
20260503211522 80 149 0.0 7.0 0.00 0.00 0.00 41 1010.5
20260503210021 80 16 1.0 3.0 0.00 0.00 0.00 48 1010.6
20260503204526 81 24 0.0 3.0 0.00 0.00 0.00 44 1010.8
20260503203017 80 10 0.0 3.0 0.00 0.00 0.00 40 1011.0
20260503201514 79 301 0.0 5.0 0.00 0.00 0.00 39 1011.2
20260503200010 78 36 1.0 6.0 0.00 0.00 0.00 45 1011.4
20260503194505 77 36 1.0 4.0 0.00 0.00 0.00 46 1011.6
20260503193002 77 33 1.0 3.0 0.00 0.00 0.00 49 1011.9
20260503191608 76 23 1.0 3.0 0.00 0.00 0.00 51 1012.1
20260503190104 76 15 1.0 3.0 0.00 0.00 0.00 50 1012.4
20260503184553 0 0.0 0.0 0.00 0.00 0.00 1012.5
20260503183106 0 0.0 0.0 0.00 0.00 0.00 1012.6
20260503181608 0 0.0 0.0 0.00 0.00 0.00 1012.6
20260503180041 0 0.0 0.0 0.00 0.00 0.00 1012.7
20260503174536 0 0.0 0.0 0.00 0.00 0.00 1012.7
20260503173031 0 0.0 0.0 0.00 0.00 0.00 1013.0
20260503171527 0 0.0 0.0 0.00 0.00 0.00 1013.0
20260503081551 0 0.0 0.0 0.00 0.00 0.00 1013.4
20260503071537 0 0.0 0.0 0.00 0.00 0.00 1013.3
20260503054508 0 0.0 0.0 0.00 0.00 0.00 1013.2
20260503053008 0 0.0 0.0 0.00 0.00 0.00 1013.1
20260503051559 0 0.0 0.0 0.00 0.00 0.00 1013.1
20260503050055 0 0.0 0.0 0.00 0.00 0.00 1013.0
20260503044550 0 0.0 0.0 0.00 0.00 0.00 1012.9
20260503043047 0 0.0 0.0 0.00 0.00 0.00 1012.7
20260503041542 0 0.0 0.0 0.00 0.00 0.00 1012.7
20260503040041 0 0.0 0.0 0.00 0.00 0.00 1012.4
20260503034534 0 0.0 0.0 0.00 0.00 0.00 1012.2
20260503033033 0 0.0 0.0 0.00 0.00 0.00 1012.0
20260503031524 0 0.0 0.0 0.00 0.00 0.00 1011.9
20260503030022 0 0.0 0.0 0.00 0.00 0.00 1011.8
20260503024516 72 175 0.0 2.0 0.00 0.00 0.00 29 1011.6
20260503023014 74 158 0.0 1.0 0.00 0.00 0.00 48 1011.5
20260503021513 75 155 0.0 1.0 0.00 0.00 0.00 46 1011.5
20260503020013 76 155 0.0 2.0 0.00 0.00 0.00 44 1011.4
20260503014511 76 155 0.0 2.0 0.00 0.00 0.00 47 1011.2
20260503013008 75 155 0.0 7.0 0.00 0.00 0.00 47 1011.3
20260503011506 75 164 0.0 3.0 0.00 0.00 0.00 50 1011.4
20260503010010 75 164 0.0 2.0 0.00 0.00 0.00 54 1011.3
20260503004503 75 164 1.0 2.0 0.00 0.00 0.00 49 1011.6
20260503003111 74 165 1.0 3.0 0.00 0.00 0.00 49 1011.5
20260503001501 74 165 1.0 2.0 0.00 0.00 0.00 51 1011.8
20260503000108 75 165 0.0 5.0 0.00 0.00 0.00 52 1011.8
20260502234602 74 165 2.0 6.0 0.00 0.00 0.00 50 1011.8